SCOUT B DEB, 2516

Orbit data source: Space-Track

SCOUT B DEB, 2516 is space debris in LEO originally from a launch on Fri, 10 Jun 1966 UTC launched from the Wallops Island (WLPIS). Debris objects in space refer to the collection of defunct objects orbiting the Earth. Examples of debris include non-operational satellites, rocket bodies, and fragments generated from explosions, collisions, or faulty payload assembly.

Loading next visibility...
Identifier
2516, 1966-052D
Orbit
LEO
Country
Flag of USUS
Related business
Manufacturer
Unknown
Mission
Spacecraft
Bus & Motor
Unknown
Mass
Unknown
Launch date (UTC)
1966-06-10 (60 years ago)
Launch vehicle
Unknown
Launch site
Wallops Island (WLPIS)
Object type
Payload
Rocket body
Debris
Shape & HBR
Unknown shape, 0.1 m
Radar Cross Section
Small (<0.1 m²)

Expand to show TLE details & history
Last TLE update: 2 months ago

TLE from 2 months ago
0 SCOUT B DEB
1 02516U 66052D   25302.22199260  .00000696  00000-0  14497-2 0  9994
2 02516  41.0192 267.9420 2221951 349.0415   6.8567 10.00849499300954
Epoch: 2025-10-29T05:19Z
TLE epoch observation values (Epoch: 2025-10-29T05:19:40.160Z)
Latitude
-0.00003°
Longitude
150.2264°
Altitude
720.039 km
Speed
8.277 km/s
True Right ascension
17h 51m 46s
True Declination
0° 00' 00"
Sunlit
Object was in daylight at epoch
Visualization orbit readout
Latitude
Unknown
Longitude
Unknown
Altitude
Unknown
Speed
Unknown
Apparent Right ascension
Unknown
Apparent Declination
Unknown
Sunlit
N/A
Visualization observer readout
Local Sidereal Time
21:43:44
Azimuth
Unknown
Elevation
Unknown
Doppler factor
Unknown
Orbital elements
Apogee altitude
4,740.505 km
Perigee altitude
697.766 km
Semi-major axis
9,097.273 km
Eccentricity
0.2222
Inclination
41.0192°
RAAN
267.942°
Arg. of periapsis
349.0415°
True anomaly
11.02566°
Mean anomaly
6.8567°
Eccentric anomaly
8.80556°
Mean motion
2.50136 °/min
Orbital period
143.92 mins
BSTAR
0.0014497
Loading maneuver chart data...
Computing Atmospheric mass density...
Loading historical data...
Loading historical data...
Loading historical data...
Loading historical data...
Loading historical data...
Loading historical data...
Loading historical data...
Other satellites on launch #52 in the year 1966 (1966-06-10 UTC)

Documentation

Showing up to 5 results
|